DateTimeUTC,F1_A11,F1_S11,BsB_S11,BsG_S11,BsR_S11,BbsB_S11,BbsG_S11,BbsR_S11,BaB_A11,BaG_A11,BaR_A11,Tu_S11,T_S11,Uu_S11,U_S11,P_S11,T1_A11
2021-12-17T19:00:00Z,00000200,21000000,,,,,,,-000.15,0000.32,0000.04,19.0,26.1,,00.0,0651.9,31.1
2021-12-17T19:01:00Z,00000200,21000000,,,,,,,-000.06,0000.12,0000.00,19.1,26.1,,00.0,0651.9,31.1
2021-12-17T19:02:00Z,00000200,21000000,,,,,,,-000.16,-000.06,-000.45,19.1,26.2,,00.0,0651.9,31.1
2021-12-17T19:03:00Z,00000200,61000000,,,,,,,-000.06,-000.03,0000.22,19.1,26.2,,00.0,0651.9,31.1
2021-12-17T19:04:00Z,00000200,41000000,-000.14,0000.13,0000.44,-000.90,0000.11,0000.68,0000.41,-000.07,0000.22,19.2,26.0,,00.0,0652.8,31.0
2021-12-17T19:05:00Z,00000200,01000000,0000.08,-000.01,-000.10,-000.06,0000.09,0000.18,-000.06,0000.12,-000.16,19.2,25.9,,00.0,0652.9,31.0
2021-12-17T19:06:00Z,00000200,01000000,-000.15,0000.32,0000.23,-000.17,-000.18,0000.37,-000.12,-000.00,0000.03,19.1,25.9,,00.0,0652.9,31.0
2021-12-17T19:07:00Z,00000200,01000000,0000.68,0000.40,0000.08,0000.33,0000.18,0000.06,0000.13,0000.20,0000.13,19.1,25.9,,00.0,0652.9,31.0
2021-12-17T19:08:00Z,00000200,01000000,-000.02,0000.27,0000.07,0000.11,0000.20,0000.18,0000.12,-000.22,0000.22,19.2,25.9,,00.0,0653.0,31.0
2021-12-17T19:09:00Z,00000200,01000000,-000.69,0000.57,0000.09,0000.21,0000.17,0000.20,0000.06,0000.16,-000.03,19.2,25.9,,00.0,0653.0,31.0
2021-12-17T19:10:00Z,00000200,01000000,0000.17,0000.21,-000.04,0000.22,0000.06,0000.11,0000.05,0000.02,-000.08,19.2,25.9,,00.0,0653.0,31.0
2021-12-17T19:11:00Z,00000200,01000000,0000.57,0000.21,-000.19,-000.66,0000.17,0000.15,0000.12,-000.03,-000.05,19.3,26.0,,00.0,0653.0,31.1
2021-12-17T19:12:00Z,00000200,01000000,-000.21,-000.08,-000.03,0000.63,0000.18,0000.31,-000.33,-000.02,0000.33,19.3,26.0,,00.0,0653.0,31.1
2021-12-17T19:13:00Z,00000200,01000000,0000.40,0000.24,0000.01,0000.48,0000.09,0000.12,0000.14,-000.04,0000.07,19.4,26.0,,00.0,0653.1,31.1
2021-12-17T19:14:00Z,00000200,01000000,0000.14,0000.10,0000.42,0000.05,-000.15,0000.22,-000.14,-000.16,-000.18,19.4,26.0,,00.0,0653.1,31.1
2021-12-17T19:15:00Z,00000200,01000000,0000.42,0000.43,0000.25,-000.30,0000.48,0000.25,0000.16,0000.55,-000.22,19.4,26.0,,00.0,0653.1,31.1
2021-12-17T19:16:00Z,00000200,01000000,0001.09,0000.21,0000.14,-000.11,0000.11,0000.10,-000.22,0000.01,0000.03,19.4,26.0,,00.0,0653.2,31.1
2021-12-17T19:17:00Z,00000200,01000000,0000.09,0000.02,0000.21,-000.07,-000.13,0000.10,0000.37,-000.15,0000.09,19.3,26.0,,00.0,0653.2,31.0
2021-12-17T19:18:00Z,00000200,01000000,0000.09,0000.16,0000.06,0000.33,-000.11,-000.08,-000.10,-000.55,-000.02,19.2,25.9,,00.0,0653.2,31.0
2021-12-17T19:19:00Z,00000200,01000000,0000.31,0000.04,0000.32,-000.05,-000.03,0000.46,-000.31,0000.06,-000.03,19.1,25.9,,00.0,0653.3,31.0
2021-12-17T19:20:00Z,00000200,01000000,0000.19,0000.38,0000.37,0000.48,0000.15,0000.07,-000.10,-000.15,-000.29,19.0,25.8,,00.0,0653.2,31.0
2021-12-17T19:21:00Z,00000200,01000000,0000.06,0000.33,0000.10,0000.40,-000.11,0000.07,-000.12,0000.02,0000.31,19.0,25.8,,00.0,0653.2,31.0
2021-12-17T19:22:00Z,00000200,01000000,-000.05,0000.18,-000.04,0000.11,0000.10,0000.03,0000.14,-000.09,-000.54,19.0,25.7,,00.0,0653.2,31.0
2021-12-17T19:23:00Z,00000200,01000000,-000.05,0000.53,0000.53,0000.44,0000.13,0000.21,-000.04,0000.23,0000.09,19.0,25.8,,00.0,0653.2,31.0
2021-12-17T19:24:00Z,00000200,01000000,0000.60,-000.03,0000.14,0000.14,0000.10,0000.26,0000.01,-000.15,0000.16,19.1,25.7,,00.0,0653.2,31.0
2021-12-17T19:25:00Z,00000200,01000000,0000.12,0000.45,0000.04,0000.14,0000.18,-000.34,0000.00,-000.06,-000.05,19.1,25.8,,00.0,0653.3,31.0
2021-12-17T19:26:00Z,00000200,01000000,0000.58,0000.21,-000.10,0000.42,0000.20,0000.17,-000.19,0000.01,0000.29,19.1,25.8,,00.0,0653.3,31.0
2021-12-17T19:27:00Z,00000200,01000000,0000.35,0000.04,0000.12,0000.54,-000.13,0000.58,0000.09,0000.09,-000.25,19.1,25.8,,00.0,0653.3,31.0
2021-12-17T19:28:00Z,00000200,01000000,-000.17,0000.41,0000.43,0000.01,0000.13,-000.03,0000.25,0000.15,-000.17,19.2,25.8,,00.0,0653.3,31.0
2021-12-17T19:29:00Z,00000200,01000000,0000.12,0000.18,0000.04,0000.04,0000.26,0000.30,0000.07,0000.03,0000.48,19.2,25.8,,00.0,0653.3,31.0
2021-12-17T19:30:00Z,00000200,01000000,-000.39,-000.18,-000.15,-000.17,0000.14,0000.18,-000.27,0000.18,-000.15,19.2,25.8,,00.0,0653.3,31.0
2021-12-17T19:31:00Z,00000200,01000000,0000.11,0000.00,0000.28,-000.31,0000.13,0000.13,-000.02,-000.43,-000.10,19.3,25.8,,00.0,0653.3,31.0
2021-12-17T19:32:00Z,00000200,01000000,0000.31,0000.18,0000.45,0000.12,0000.21,0000.16,0000.29,0000.47,-000.21,19.2,25.8,,00.0,0653.4,31.0
2021-12-17T19:33:00Z,00000200,01000000,0000.26,0000.28,0000.28,0000.20,0000.34,0000.55,-000.06,0000.06,0000.19,19.2,25.8,,00.0,0653.4,31.0
2021-12-17T19:34:00Z,00000200,01000000,-000.45,0000.38,-000.13,-000.16,0000.21,0000.15,-000.17,-000.70,0000.05,19.1,25.8,,00.0,0653.4,31.0
2021-12-17T19:35:00Z,00000200,01000000,0000.13,0000.36,0000.10,0000.65,-000.02,0000.19,0000.12,0000.14,0000.37,19.1,25.7,,00.0,0653.4,31.0
2021-12-17T19:36:00Z,00000200,01000000,-000.28,0000.51,-000.15,0000.19,-000.14,-000.08,-000.13,0000.13,-000.12,19.0,25.7,,00.0,0653.5,31.0
2021-12-17T19:37:00Z,00000200,01000000,0000.83,0000.07,0000.36,-000.20,0000.05,0000.31,0000.30,0000.12,-000.11,19.0,25.7,,00.0,0653.5,31.0
2021-12-17T19:38:00Z,00000200,01000000,0000.32,0000.02,0000.26,-000.11,0000.37,0000.44,-000.18,0000.18,-000.02,19.1,25.7,,00.0,0653.5,31.0
2021-12-17T19:39:00Z,00000200,01000000,-000.21,0000.16,-000.08,0000.00,-000.12,-000.21,-000.03,-000.38,-000.09,19.1,25.7,,00.0,0653.6,31.0
2021-12-17T19:40:00Z,00000200,01000000,0000.83,0000.29,0000.15,-000.60,-000.04,-000.03,0000.06,0000.32,0000.09,19.1,25.7,,00.0,0653.5,31.0
2021-12-17T19:41:00Z,00000200,01000000,0000.15,0000.41,-000.12,-000.16,0000.18,0000.45,0000.05,0000.46,0000.18,19.2,25.8,,00.0,0653.6,31.0
2021-12-17T19:42:00Z,00000200,01000000,0000.56,0000.03,-000.03,-000.11,-000.31,0000.30,0000.35,-000.30,-000.08,19.2,25.8,,00.0,0653.6,31.0
2021-12-17T19:43:00Z,00000200,01000000,0000.35,0000.17,0000.08,0000.34,0000.19,0000.20,-000.08,0000.27,0000.09,19.2,25.8,,00.0,0653.6,31.0
2021-12-17T19:44:00Z,00000200,01000000,0000.14,0000.27,0000.35,-000.23,0000.39,0000.35,-000.13,-000.31,0000.05,19.3,25.8,,00.0,0653.6,31.0
2021-12-17T19:45:00Z,00000200,01000000,-000.61,0000.03,-000.03,-000.21,0000.09,0000.15,0000.04,0000.16,-000.04,19.3,25.8,,00.0,0653.6,31.1
2021-12-17T19:46:00Z,00000200,01000000,0000.99,-000.09,0000.20,-000.18,0000.09,0000.23,-000.12,-000.21,-000.01,19.2,25.8,,00.0,0653.6,31.0
2021-12-17T19:47:00Z,00000200,01000000,0000.35,0000.56,0000.18,-000.14,-000.03,-000.10,0000.22,0000.08,0000.20,19.1,25.8,,00.0,0653.6,31.0
2021-12-17T19:48:00Z,00000200,01000000,0000.21,-000.02,-000.12,-000.12,0000.09,-000.13,0000.26,0000.23,-000.21,19.0,25.8,,00.0,0653.6,31.0
2021-12-17T19:49:00Z,00000200,01000000,0000.70,0000.03,-000.05,0000.09,-000.12,0000.25,-000.27,-000.23,0000.04,18.9,25.7,,00.0,0653.5,31.0
2021-12-17T19:50:00Z,00000200,01000000,-000.12,-000.05,0000.12,0000.17,0000.08,0000.05,-000.39,-000.56,-000.38,18.8,25.6,,00.0,0653.6,30.9
2021-12-17T19:51:00Z,00000200,01000000,0000.07,0000.20,0000.24,0000.27,-000.14,0000.34,0000.26,0000.09,0000.12,18.8,25.6,,00.0,0653.6,30.9
2021-12-17T19:52:00Z,00000200,01000000,0000.19,0000.40,0000.06,0000.13,0000.02,0000.12,0000.07,0000.13,0000.07,18.8,25.6,,00.0,0653.6,31.0
2021-12-17T19:53:00Z,00000200,01000000,-000.00,0000.24,0000.39,-000.33,-000.13,0000.46,0000.11,-000.11,0000.14,18.8,25.6,,00.0,0653.6,31.0
2021-12-17T19:54:00Z,00000200,01000000,-000.42,0000.04,0000.17,-000.29,0000.38,0000.45,-000.25,0000.31,0000.11,18.8,25.6,,00.0,0653.6,31.0
2021-12-17T19:55:00Z,00000200,01000000,0000.85,0000.25,0000.12,0000.25,0000.15,0000.21,0000.24,0000.07,0000.15,18.9,25.6,,00.0,0653.6,31.0
2021-12-17T19:56:00Z,00000200,01000000,-000.54,-000.45,0000.44,0000.26,0000.14,0000.28,-000.12,0000.11,0000.09,18.9,25.6,,00.0,0653.6,31.0
2021-12-17T19:57:00Z,00000200,41000000,,,,,,,0001.26,0001.04,0000.92,19.0,25.6,,00.0,0653.7,31.0
2021-12-17T19:58:00Z,00000200,61000000,,,,,,,-000.14,-000.79,-000.27,18.7,25.7,,00.0,0652.7,31.0
2021-12-17T19:59:00Z,00000200,21000000,,,,,,,-000.43,0000.37,-000.22,18.7,25.9,,00.0,0652.7,31.0
